Satellite: SO-50
Catalog number: 27607
Epoch time:      12086.71181244
Element set:    0723
Inclination:      064.5594 deg
RA of node:       185.7688 deg
Eccentricity:    0.0085039
Arg of perigee:   264.8589 deg
Mean anomaly:     094.2787 deg
Mean motion:   14.72276190 rev/day
Decay rate:       6.28e-06 rev/day^2
Epoch rev:           49782
Checksum:              359

Satellite: CO-55
Catalog number: 27844
Epoch time:      12088.01797328
Element set:     338
Inclination:      098.7056 deg
RA of node:       097.5753 deg
Eccentricity:    0.0010686
Arg of perigee:   096.3309 deg
Mean anomaly:     263.9081 deg
Mean motion:   14.20983239 rev/day
Decay rate:       1.93e-06 rev/day^2
Epoch rev:           45336
Checksum:              341

Satellite: CO-57
Catalog number: 27848
Epoch time:      12088.00756339
Element set:     289
Inclination:      098.7138 deg
RA of node:       096.8624 deg
Eccentricity:    0.0010675
Arg of perigee:   100.4267 deg
Mean anomaly:     259.8103 deg
Mean motion:   14.20739917 rev/day
Decay rate:       1.48e-06 rev/day^2
Epoch rev:           45330
Checksum:              331

Satellite: AO-51
Catalog number: 28375
Epoch time:      12087.41863509
Element set:    0228
Inclination:      098.1375 deg
RA of node:       056.5388 deg
Eccentricity:    0.0083216
Arg of perigee:   289.4003 deg
Mean anomaly:     069.8188 deg
Mean motion:   14.40918972 rev/day
Decay rate:       2.78e-06 rev/day^2
Epoch rev:           40699
Checksum:              351

Satellite: CP3
Catalog number: 31129
Epoch time:      12088.44410342
Element set:     126
Inclination:      097.8863 deg
RA of node:       100.9721 deg
Eccentricity:    0.0101863
Arg of perigee:   015.2272 deg
Mean anomaly:     345.1939 deg
Mean motion:   14.52956174 rev/day
Decay rate:       8.31e-06 rev/day^2
Epoch rev:           26225
Checksum:              284

Satellite: CO-65
Catalog number: 32785
Epoch time:      12088.33936049
Element set:     265
Inclination:      097.8080 deg
RA of node:       151.2818 deg
Eccentricity:    0.0014287
Arg of perigee:   329.9642 deg
Mean anomaly:     030.0836 deg
Mean motion:   14.82783996 rev/day
Decay rate:      1.241e-05 rev/day^2
Epoch rev:           21178
Checksum:              333

Satellite: PRISM
Catalog number: 33493
Epoch time:      12088.46652852
Element set:     554
Inclination:      098.1584 deg
RA of node:       227.1891 deg
Eccentricity:    0.0018824
Arg of perigee:   195.2959 deg
Mean anomaly:     164.7699 deg
Mean motion:   14.83430873 rev/day
Decay rate:      2.598e-05 rev/day^2
Epoch rev:           17178
Checksum:              360

Satellite: SOHLA-1
Catalog number: 33496
Epoch time:      12087.96420535
Element set:    0694
Inclination:      098.0958 deg
RA of node:       200.2805 deg
Eccentricity:    0.0005764
Arg of perigee:   304.6367 deg
Mean anomaly:     055.4290 deg
Mean motion:   14.69902109 rev/day
Decay rate:       3.25e-06 rev/day^2
Epoch rev:           17031
Checksum:              302

Satellite: SO-67
Catalog number: 35870
Epoch time:      12088.40925926
Element set:     812
Inclination:      097.2419 deg
RA of node:       126.9975 deg
Eccentricity:    0.0003841
Arg of perigee:   091.2833 deg
Mean anomaly:     091.7329 deg
Mean motion:   15.23118456 rev/day
Decay rate:      3.608e-05 rev/day^2
Epoch rev:           14031
Checksum:              318

Satellite: TISAT-1
Catalog number: 36799
Epoch time:      12087.90474377
Element set:    0830
Inclination:      098.0675 deg
RA of node:       163.6467 deg
Eccentricity:    0.0016378
Arg of perigee:   077.8524 deg
Mean anomaly:     282.4518 deg
Mean motion:   14.81661093 rev/day
Decay rate:      1.416e-05 rev/day^2
Epoch rev:           09245
Checksum:              341

Satellite: STUDSAT
Catalog number: 36801
Epoch time:      12088.49277774
Element set:     366
Inclination:      098.0738 deg
RA of node:       164.6267 deg
Eccentricity:    0.0013801
Arg of perigee:   062.9603 deg
Mean anomaly:     297.3017 deg
Mean motion:   14.83502816 rev/day
Decay rate:      3.509e-05 rev/day^2
Epoch rev:            9255
Checksum:              318

Satellite: FO-69
Catalog number: 37227
Epoch time:      12087.42771165
Element set:    0139
Inclination:      071.9690 deg
RA of node:       132.3630 deg
Eccentricity:    0.0015508
Arg of perigee:   115.9976 deg
Mean anomaly:     244.2768 deg
Mean motion:   14.76978618 rev/day
Decay rate:       3.70e-06 rev/day^2
Epoch rev:           02402
Checksum:              325

Satellite: FO-70
Catalog number: 37380
Epoch time:      12087.48735035
Element set:    0142
Inclination:      071.9723 deg
RA of node:       132.6887 deg
Eccentricity:    0.0015929
Arg of perigee:   112.1100 deg
Mean anomaly:     248.1731 deg
Mean motion:   14.76734090 rev/day
Decay rate:       3.31e-06 rev/day^2
Epoch rev:           02392
Checksum:              284

Satellite: ALMASAT-1
Catalog number: 38078
Epoch time:      12088.48182670
Element set:      71
Inclination:      069.4904 deg
RA of node:       139.6950 deg
Eccentricity:    0.0771993
Arg of perigee:   349.4154 deg
Mean anomaly:     009.1494 deg
Mean motion:   14.06024453 rev/day
Decay rate:     1.8429e-04 rev/day^2
Epoch rev:             619
Checksum:              325

